Jackson, TN

11:56 PM CST on November 21, 2019 (GMT -0600)
McKellar-Sipes Regional

Weather History for KMKL - July, 2019

Change the Weather History Date:

Wednesday, July 31, 2019

  Actual Average Record
Temperature  
Mean Temperature 77 °F 79 °F  
Max Temperature 88 °F 91 °F 102 °F (1980)
Min Temperature 65 °F 68 °F 54 °F (1971)
Degree Days  
Heating Degree Days 0 0  
Month to date heating degree days 0 0  
Since 1 June heating degree days 1 2  
Since 1 July heating degree days 0 0  
Cooling Degree Days 12 14  
Month to date cooling degree days 451 449  
Year to date cooling degree days 1032 1003  
Since 1 June cooling degree days 772 788  
Growing Degree Days 27 (Base 50)    
Moisture  
Dew Point 69 °F    
Average Humidity 74    
Maximum Humidity 100    
Minimum Humidity 48    
Precipitation  
Precipitation 0.00 in 0.13 in 1.31 in (1975)
Month to date precipitation 10.50 4.49  
Year to date precipitation 43.32 32.87  
Sea Level Pressure  
Sea Level Pressure 30.06 in    
Wind  
Wind Speed 3 mph (North)    
Max Wind Speed 14 mph    
Max Gust Speed 16 mph    
Visibility 4 miles    
Events Fog    
T = Trace of Precipitation, MM = Missing Value Source: NWS Daily Summary

Daily Weather History Graph

Daily Weather History Graph

Search for Another Location

Airport or City:

Astronomy

Jul. 31, 2019 Rise Set
Actual Time 6:02 AM CDT 8:00 PM CDT
Civil Twilight 5:34 AM CDT 8:28 PM CDT
Nautical Twilight 5:00 AM CDT 9:02 PM CDT
Astronomical Twilight 4:23 AM CDT 9:39 PM CDT
Moon 5:18 AM CDT (7/31) 7:58 PM CDT (7/31)
Length of Visible Light 14h 54m
Length of Day
13h 57m
Waning Crescent, 0% of the Moon is Illuminated
Jul 31
Waning Crescent
Jul 31
New
Aug 7
First Quarter
Aug 15
Full
Aug 23
Last Quarter

Hourly Weather History & Observations

Time (CDT) Temp. Heat Index Dew Point Humidity Pressure Visibility Wind Dir Wind Speed Gust Speed Precip Events Conditions
12:43 AM 70.0 °F - 70.0 °F 100% 30.06 in 0.8 mi Calm Calm - N/A   Mist
12:53 AM 71.1 °F - 71.1 °F 100% 30.04 in 0.8 mi Calm Calm - N/A   Mist
1:26 AM 71.1 °F - 71.1 °F 100% 30.05 in 0.5 mi Calm Calm - N/A Fog Fog
1:42 AM 70.0 °F - 69.1 °F 97% 30.05 in 0.8 mi Calm Calm - N/A   Mist
1:44 AM 70.0 °F - 69.1 °F 97% 30.05 in 1.2 mi Calm Calm - N/A   Partly Cloudy
1:53 AM 70.0 °F - 69.1 °F 97% 30.04 in 1.5 mi Calm Calm - N/A   Scattered Clouds
2:01 AM 70.0 °F - 69.1 °F 97% 30.04 in 0.5 mi Calm Calm - N/A Fog Fog
2:07 AM 69.1 °F - 69.1 °F 100% 30.04 in 1.2 mi Calm Calm - N/A   Partly Cloudy
2:19 AM 70.0 °F - 69.1 °F 97% 30.04 in 1.2 mi Calm Calm - N/A   Mostly Cloudy
2:33 AM 69.1 °F - 69.1 °F 100% 30.05 in 3.0 mi Calm Calm - N/A   Mostly Cloudy
2:37 AM 69.1 °F - 69.1 °F 100% 30.05 in 2.5 mi Calm Calm - N/A   Scattered Clouds
2:41 AM 70.0 °F - 69.1 °F 97% 30.05 in 1.0 mi Calm Calm - N/A   Mist
2:48 AM 69.8 °F - 69.8 °F 100% 30.05 in 0.8 mi Calm Calm - N/A   Mist
2:49 AM 69.8 °F - 69.8 °F 100% 30.05 in 1.0 mi Calm Calm - N/A   Mist
2:53 AM 70.0 °F - 69.1 °F 97% 30.03 in 1.8 mi Calm Calm - N/A   Mostly Cloudy
3:22 AM 69.1 °F - 68.0 °F 96% 30.04 in 0.5 mi Calm Calm - N/A Fog Fog
3:30 AM 69.1 °F - 69.1 °F 100% 30.04 in 0.2 mi Calm Calm - N/A Fog Fog
3:53 AM 68.0 °F - 68.0 °F 100% 30.03 in 0.2 mi Calm Calm - N/A Fog Fog
4:06 AM 69.1 °F - 69.1 °F 100% 30.04 in 0.5 mi Calm Calm - N/A Fog Fog
4:23 AM 69.1 °F - 69.1 °F 100% 30.04 in 0.2 mi Calm Calm - N/A Fog Fog
4:53 AM 70.0 °F - 70.0 °F 100% 30.03 in 0.2 mi Calm Calm - N/A Fog Fog
5:34 AM 71.1 °F - 70.0 °F 96% 30.06 in 1.0 mi Calm Calm - N/A   Mist
5:46 AM 71.1 °F - 70.0 °F 96% 30.06 in 0.5 mi North 3.5 mph - N/A Fog Fog
5:53 AM 71.1 °F - 70.0 °F 96% 30.05 in 0.5 mi North 4.6 mph - N/A Fog Fog
6:06 AM 71.1 °F - 70.0 °F 96% 30.07 in 0.2 mi Calm Calm - N/A Fog Fog
6:46 AM 71.1 °F - 70.0 °F 96% 30.08 in 0.2 mi Calm Calm - N/A Fog Fog
6:53 AM 71.1 °F - 70.0 °F 96% 30.07 in 0.2 mi Calm Calm - N/A Fog Fog
7:06 AM 72.0 °F - 71.1 °F 97% 30.08 in 3.0 mi Calm Calm - N/A   Mostly Cloudy
7:13 AM 73.0 °F - 71.1 °F 93% 30.09 in 6.0 mi Calm Calm - N/A   Scattered Clouds
7:53 AM 75.0 °F - 71.1 °F 87% 30.08 in 10.0 mi Calm Calm - N/A   Clear
8:53 AM 78.1 °F - 70.0 °F 76% 30.10 in 10.0 mi East 3.5 mph - N/A   Clear
9:53 AM 82.0 °F 85.9 °F 70.0 °F 67% 30.10 in 10.0 mi Calm Calm - N/A   Clear
10:53 AM 84.9 °F 88.8 °F 69.1 °F 59% 30.11 in 10.0 mi Variable 4.6 mph - N/A   Partly Cloudy
11:53 AM 87.1 °F 89.2 °F 66.0 °F 49% 30.10 in 10.0 mi NNE 4.6 mph - N/A   Clear
12:53 PM 87.1 °F 89.9 °F 66.9 °F 51% 30.10 in 10.0 mi North 4.6 mph - N/A   Partly Cloudy
1:53 PM 87.1 °F 90.6 °F 68.0 °F 53% 30.08 in 10.0 mi NW 8.1 mph - N/A   Partly Cloudy
2:53 PM 88.0 °F 90.7 °F 66.9 °F 49% 30.07 in 10.0 mi North 10.4 mph - N/A   Clear
3:53 PM 87.1 °F 89.9 °F 66.9 °F 51% 30.05 in 10.0 mi North 10.4 mph - N/A   Clear
4:53 PM 86.0 °F 87.3 °F 64.0 °F 48% 30.04 in 10.0 mi NNW 10.4 mph - N/A   Clear
5:53 PM 86.0 °F 88.2 °F 66.0 °F 51% 30.04 in 10.0 mi North 10.4 mph - N/A   Clear
6:53 PM 82.0 °F 84.5 °F 66.9 °F 60% 30.04 in 10.0 mi NNW 5.8 mph - N/A   Clear
7:53 PM 77.0 °F - 69.1 °F 76% 30.04 in 10.0 mi Calm Calm - N/A   Clear
8:53 PM 71.1 °F - 69.1 °F 93% 30.04 in 10.0 mi Calm Calm - N/A   Clear
9:53 PM 69.1 °F - 66.9 °F 93% 30.06 in 10.0 mi Calm Calm - N/A   Clear
10:53 PM 66.9 °F - 66.9 °F 100% 30.07 in 2.5 mi Calm Calm - N/A   Clear
11:04 PM 68.0 °F - 66.9 °F 96% 30.08 in 7.0 mi Calm Calm - N/A   Clear
11:53 PM 66.0 °F - 66.0 °F 100% 30.07 in 4.0 mi Calm Calm - N/A   Clear